Temperature
18 19 20 21 21 22 21 20 18 17 16 16 16 16 16 16 16 15 15 15 16 16 17 17 18 18 19 19 18 17 16 16 15 15 14 14 13 13 12 12 12 12 12 12
19 20 20 20 21 21 21 19 17 16 16 17 17 16 15 14 14 13 13 14 15 16 16 16 16 17 17 18 18 17 16 16 15 14 14 14 13 13 12 12 12 11 12 12
17 18 19 18 19 19 18 17 17 16 16 16 15 14 12 12 12 12 12 13 14 15 15 15 15 15 15 16 17 17 16 16 15 14 14 13 13 13 12 12 11 11 12 12
16 17 18 18 20 18 16 13 14 14 12 12 13 12 10 10 10 11 11 12 12 13 13 14 14 14 14 15 15 16 16 16 15 14 14 13 13 13 12 12 11 11 12 12
15 17 17 19 19 19 16 11 10 9 9 9 10 12 11 11 11 11 11 12 12 12 12 12 13 12 13 13 13 14 14 15 15 14 14 13 13 13 12 11 11 11 12 12
16 16 16 16 16 17 15 10 9 8 8 8 8 8 8 10 11 11 12 11 11 12 11 11 11 11 11 11 12 12 12 12 13 14 14 13 13 13 12 12 11 12 12 11
15 15 16 12 13 15 15 11 8 8 8 8 7 8 9 9 9 9 9 10 10 11 11 11 11 11 10 10 10 10 10 11 12 12 13 13 13 13 12 12 11 12 12 12
15 15 14 10 10 10 8 8 9 9 9 9 9 9 9 9 10 10 10 10 10 10 10 10 10 10 10 10 10 10 10 10 10 11 12 13 13 12 12 12 11 12 12 12
13 12 10 9 9 9 10 10 10 10 10 10 9 9 10 10 10 10 10 10 10 10 10 10 10 9 9 9 9 9 9 9 9 9 11 12 13 12 12 12 12 12 12 11
10 9 10 10 10 11 10 10 10 11 10 10 9 9 9 9 10 10 10 10 10 10 9 9 10 9 9 9 9 9 9 9 8 8 10 11 12 12 12 12 12 12 11 11
8 9 10 10 11 11 11 11 11 11 10 10 9 9 9 9 9 9 9 9 9 9 9 9 9 9 9 9 9 9 8 8 8 8 9 10 11 12 12 12 12 12 12 12
8 9 9 10 11 11 11 11 11 10 10 10 10 10 9 9 9 9 9 9 9 9 9 9 9 9 9 9 9 9 8 8 7 8 8 9 11 12 12 12 12 12 12 12
11 11 11 11 11 11 11 11 11 10 10 10 10 9 9 9 8 8 8 8 8 8 9 9 9 9 8 8 8 8 8 7 7 8 8 9 10 11 12 12 11 11 11 12
11 11 11 11 10 11 10 10 10 10 9 9 9 9 8 8 8 7 7 7 7 7 7 8 8 8 8 8 8 8 7 7 7 7 8 9 10 11 12 12 12 11 11 11
11 11 10 10 10 10 10 9 9 9 8 8 8 7 7 6 6 5 5 5 5 5 5 6 6 7 8 8 7 7 7 7 7 7 8 8 10 11 12 12 12 12 11 11
10 10 10 10 9 9 9 9 8 8 7 7 6 5 5 4 4 4 4 4 4 4 4 4 4 5 6 7 7 7 7 7 7 7 7 8 9 10 11 11 11 11 11 11
10 9 9 9 9 8 8 8 7 7 6 5 5 4 4 4 3 3 3 3 3 3 3 3 4 4 5 6 6 7 7 7 7 7 7 8 9 10 11 11 11 11 11 12
9 9 9 9 8 8 8 7 6 6 5 4 4 4 3 3 3 3 3 3 3 3 3 3 3 4 4 5 6 6 6 6 6 7 7 8 9 10 10 11 12 12 12 12
9 9 8 8 8 7 7 6 5 5 4 4 3 3 3 3 3 3 3 3 3 2 3 3 3 4 4 5 6 6 6 6 6 7 7 8 9 9 10 11 12 12 12 11
9 8 8 8 7 7 6 5 4 4 3 3 3 3 3 3 3 3 3 3 3 2 2 2 3 4 4 5 6 6 6 6 6 7 8 9 9 9 10 11 12 12 12 12
8 8 8 7 6 6 5 4 3 3 3 3 3 3 3 4 4 3 3 3 3 3 3 3 3 4 5 6 6 6 6 6 7 7 8 9 10 10 11 11 12 12 12 12
8 8 7 6 6 5 5 4 3 2 3 3 3 3 4 4 4 4 4 3 3 3 4 4 5 5 6 6 6 6 6 7 7 8 9 10 10 11 11 12 12 12 12 12
7 7 6 6 5 4 4 4 3 2 3 3 3 4 4 4 4 4 4 4 4 5 5 5 6 6 6 6 6 6 6 7 8 9 10 11 11 11 12 12 12 12 12 12
7 6 6 5 4 4 3 3 3 3 3 3 4 4 5 5 5 5 5 5 6 6 6 6 6 6 6 6 6 6 7 8 8 10 10 11 11 12 12 12 12 12 12 12
6 6 5 4 3 3 2 2 3 2 3 3 4 4 5 5 5 6 6 6 7 7 7 7 7 6 6 6 7 7 8 8 9 10 11 11 11 12 12 12 12 12 12 12
6 5 4 3 3 2 1 2 2 2 3 3 4 4 5 5 6 6 6 7 7 7 7 7 7 7 7 7 7 8 9 9 10 10 11 11 12 12 12 12 12 12 12 12
5 4 3 3 2 2 2 2 2 2 3 3 4 4 5 5 6 6 7 7 7 7 7 7 7 7 7 7 8 8 9 9 10 11 11 12 12 12 12 12 12 12 12 13
Wind_Speed
9 10 9 12 15 16 15 13 12 4 7 3 3 6 7 8 10 13 14 15 16 15 14 12 9 8 8 9 9 9 8 8 9 8 8 7 6 6 5 5 5 5 3 5
5 7 10 13 14 12 4 4 7 10 5 1 1 6 8 9 10 11 11 11 11 12 13 15 14 12 10 9 9 8 8 9 8 8 8 8 7 6 4 4 3 0 3 5
5 8 8 7 9 6 8 8 4 4 1 3 3 10 10 10 11 11 10 10 11 10 10 11 13 14 14 12 8 7 9 9 9 9 9 8 7 6 5 3 3 4 4 5
1 6 4 6 2 11 13 15 14 11 14 15 11 6 12 15 14 13 13 11 8 7 8 7 9 12 14 14 11 8 8 8 9 10 9 8 8 7 6 4 5 5 4 5
3 2 7 4 4 1 5 7 12 11 14 17 19 9 7 14 12 10 10 10 10 9 7 6 7 9 11 13 13 10 7 7 9 11 11 10 9 8 6 5 5 5 5 6
4 5 7 3 11 13 4 4 7 9 11 12 14 12 11 18 19 18 15 12 11 10 8 6 6 6 8 9 10 12 13 12 8 9 11 12 10 8 6 6 6 7 6 6
5 6 4 8 12 10 4 2 3 5 6 7 4 8 13 17 18 16 16 16 14 13 9 7 6 4 5 6 7 8 12 15 13 9 11 11 9 7 7 7 8 8 7 5
3 4 4 11 7 6 1 2 6 9 10 10 11 14 15 15 15 14 15 16 14 12 9 8 7 4 3 4 5 6 8 12 15 13 11 11 10 9 9 10 10 8 7 5
3 2 3 6 5 4 5 6 8 9 12 12 14 15 15 14 14 14 15 14 12 10 10 10 8 7 7 6 6 5 6 8 11 15 11 9 11 11 9 10 9 8 7 7
5 4 2 3 3 4 7 9 13 15 16 16 17 18 18 17 16 15 16 15 13 11 11 11 10 10 10 9 7 5 6 7 8 12 12 10 10 11 11 11 11 10 9 8
5 4 3 5 7 10 12 15 17 18 18 19 19 20 20 19 19 18 17 16 15 14 14 14 12 11 11 10 9 7 7 7 8 9 11 11 12 12 14 13 14 12 11 11
2 5 5 10 11 15 17 17 19 20 21 20 18 19 20 18 18 19 19 19 18 18 17 15 13 11 11 11 10 8 7 7 8 8 9 9 11 10 14 13 18 19 18 15
6 8 10 14 15 17 17 18 19 18 18 17 14 13 14 14 13 13 15 16 17 18 17 15 13 12 11 11 10 9 8 8 8 8 9 9 10 12 10 8 13 17 19 20
9 10 11 11 13 15 15 16 15 15 14 14 14 14 14 13 11 11 12 13 14 15 15 14 13 12 11 10 10 10 9 10 10 9 9 8 10 12 12 12 11 8 10 15
10 11 11 13 14 14 13 14 15 15 14 14 14 16 16 16 17 17 16 17 15 14 14 14 14 13 10 9 10 10 9 7 8 8 8 8 9 11 11 13 12 9 5 5
12 12 13 15 16 15 16 16 16 14 15 17 18 20 22 23 24 24 22 20 18 16 15 14 15 14 11 10 10 9 9 13 11 8 8 8 8 9 10 11 11 10 10 8
13 13 13 16 18 18 16 15 16 16 18 21 24 25 26 26 25 24 22 20 18 17 16 17 16 14 13 11 10 8 8 9 13 10 8 8 8 10 11 12 12 11 10 12
11 10 12 14 16 18 18 16 16 18 21 24 26 26 26 25 24 23 21 19 17 16 16 16 15 13 13 11 9 8 8 7 8 8 8 8 9 10 11 12 13 13 9 11
11 12 13 14 15 16 16 14 16 19 22 24 26 26 26 25 23 22 20 19 17 16 13 11 15 14 11 10 10 7 8 9 9 9 9 10 11 11 12 13 13 12 12 12
11 12 13 15 15 15 15 16 19 21 23 25 26 26 25 24 22 20 18 15 11 10 10 11 10 9 9 10 13 8 9 10 10 9 9 10 12 13 13 13 13 12 12 12
12 13 15 16 15 15 15 18 20 23 25 25 26 26 25 23 20 16 13 11 8 8 9 11 8 8 8 9 11 7 7 8 9 9 8 10 12 13 13 13 13 12 12 12
12 12 15 15 13 16 17 18 21 24 26 26 27 26 24 21 17 13 10 7 8 9 8 7 7 10 11 10 6 6 6 7 8 6 6 9 11 11 12 12 12 12 12 11
11 12 13 11 13 17 20 22 23 24 25 27 27 26 23 17 11 9 10 7 7 10 9 8 10 14 14 6 5 6 6 6 4 4 5 8 10 10 10 12 11 12 12 11
11 12 11 12 15 17 21 24 24 22 23 24 23 24 20 13 10 7 7 11 12 13 9 11 14 14 10 4 5 5 5 4 3 4 4 6 8 9 10 10 10 11 11 12
11 10 11 14 16 15 17 21 23 22 21 20 23 23 18 11 9 10 10 11 13 13 9 10 12 11 6 4 4 4 3 3 4 4 3 5 7 9 9 10 10 11 11 11
9 9 10 11 11 12 15 16 17 18 19 20 20 18 16 14 12 11 10 11 13 13 9 6 5 4 3 3 1 2 5 5 4 2 1 2 6 9 10 11 12 11 10 11
9 10 11 14 14 14 16 16 17 18 19 19 21 18 15 14 13 14 13 12 11 9 7 5 3 1 1 2 3 4 5 4 3 2 1 2 4 7 8 10 9 8 8 9
Wind_Direction
227 248 263 278 285 281 270 252 234 204 122 119 91 80 67 47 40 36 28 24 18 11 359 345 313 276 243 229 221 212 204 199 200 199 200 208 225 241 257 280 303 329 26 40
276 272 281 286 289 284 322 46 105 110 117 217 135 87 65 47 47 40 28 18 11 8 3 354 342 319 289 258 236 214 206 206 198 194 201 207 213 219 234 263 286 122 114 86
284 306 332 323 333 68 61 32 79 108 73 338 45 75 62 43 38 30 16 7 4 2 359 357 352 347 332 303 269 224 211 204 193 194 203 207 201 197 200 200 159 139 135 118
244 11 320 263 39 102 92 47 29 38 20 8 350 84 67 36 13 358 348 340 335 330 330 335 342 345 345 339 315 267 225 204 194 193 202 202 194 191 181 166 158 152 155 130
141 229 267 286 2 354 128 65 30 35 24 13 358 345 11 4 343 320 311 305 297 287 284 304 327 337 344 352 343 321 286 241 206 195 198 198 195 191 177 162 164 163 161 140
176 210 243 305 341 332 91 86 31 31 19 10 13 355 322 318 313 308 306 302 299 298 282 292 306 331 353 355 1 353 339 316 269 206 196 199 194 184 169 162 169 163 162 154
233 240 243 355 330 339 327 341 26 351 321 317 295 251 270 286 292 290 291 294 295 299 285 275 285 316 346 350 352 343 340 340 318 254 207 199 186 175 165 161 160 165 161 160
302 278 292 355 19 52 68 301 276 279 278 279 275 277 280 284 288 291 293 293 294 294 283 278 277 275 288 294 295 320 343 344 330 292 233 204 182 176 169 166 167 167 160 160
55 81 64 52 99 165 204 249 270 280 288 286 282 282 285 286 289 292 292 294 291 282 280 282 279 265 260 257 263 296 325 326 321 310 261 211 186 179 171 172 172 170 166 169
79 89 115 133 175 235 260 274 283 284 284 283 281 282 283 284 285 285 287 288 283 276 278 278 274 260 246 243 244 264 288 296 301 307 279 229 196 182 179 179 177 174 173 175
46 352 300 312 299 287 282 281 282 283 281 280 279 281 282 284 284 283 283 281 280 278 277 275 274 267 256 245 236 241 261 276 280 285 279 240 208 194 188 189 185 178 181 178
268 265 269 282 281 283 286 286 289 292 292 289 284 281 283 283 282 280 278 277 277 277 275 274 272 266 262 249 235 230 244 265 272 277 280 249 216 202 202 189 186 182 178 176
230 250 256 272 280 285 287 287 288 288 287 287 287 283 284 283 282 279 278 277 276 277 275 272 264 256 256 249 237 231 235 255 269 269 278 256 217 194 186 191 191 188 182 179
267 277 284 287 290 293 293 292 294 293 287 283 287 288 286 282 278 280 280 280 282 283 278 270 260 250 248 242 236 237 238 255 268 264 274 261 221 196 185 179 178 182 190 188
299 300 297 303 310 312 307 307 309 306 301 298 296 297 296 293 289 286 282 280 277 276 276 274 269 258 246 236 232 236 238 246 259 263 268 259 224 192 181 180 180 169 148 169
324 322 317 318 318 314 312 313 312 308 308 311 312 312 309 304 300 297 293 287 279 269 267 268 269 268 258 243 234 235 238 249 256 260 263 249 216 187 176 171 165 165 170 163
327 323 324 324 321 318 314 312 313 316 320 321 318 314 309 304 300 297 294 290 281 272 266 262 260 262 263 249 234 233 235 249 259 262 257 241 210 187 175 170 167 171 175 173
303 303 305 309 314 316 316 317 321 324 322 318 317 314 309 305 299 295 293 290 285 278 271 263 254 254 256 247 235 233 232 240 248 253 256 237 205 187 175 171 171 169 166 169
298 302 309 311 313 316 321 323 324 321 319 320 317 313 309 304 298 293 289 285 281 279 276 262 255 256 251 247 249 236 234 241 249 251 249 223 198 183 175 171 170 169 164 161
309 314 316 317 320 325 327 325 324 322 322 320 316 313 312 310 307 304 298 288 276 270 274 271 267 261 255 257 260 238 232 240 247 251 238 207 185 175 172 170 169 168 167 170
318 319 322 324 328 331 327 326 327 325 322 320 318 317 315 315 317 318 313 308 294 279 278 275 270 263 257 254 254 235 229 236 249 247 218 186 172 169 169 167 168 171 174 177
317 320 323 329 331 329 328 329 328 326 323 322 321 320 320 323 326 326 319 305 299 299 298 286 278 270 269 265 242 223 228 246 247 222 187 167 163 163 165 164 166 173 179 180
317 318 324 327 327 327 329 331 331 328 325 324 323 324 325 324 323 323 322 312 308 303 302 290 285 288 290 268 226 223 237 243 214 162 150 148 153 156 162 166 169 173 178 182
318 323 325 327 332 332 333 332 329 327 324 324 325 328 329 327 322 308 293 298 302 302 298 291 294 297 292 251 231 236 237 207 148 105 114 136 150 159 166 170 169 172 178 182
321 327 333 338 337 334 330 328 327 328 328 329 329 332 334 329 318 313 307 304 305 308 305 299 295 293 284 264 249 240 196 141 112 87 88 136 154 163 167 169 171 173 178 185
330 336 335 330 326 328 331 330 327 328 328 329 331 331 332 335 330 324 319 313 308 309 308 302 302 292 294 303 315 112 112 109 100 84 63 138 162 165 166 167 166 171 180 189
340 341 339 336 335 335 333 328 326 326 325 327 329 328 330 335 335 334 329 322 317 311 305 303 296 288 346 14 58 78 88 96 109 153 191 157 159 163 163 161 162 162 169 180
Height
1517 1511 1507 1505 1501 1496 1497 1498 1506 1506 1511 1507 1503 1501 1500 1498 1496 1493 1491 1489 1488 1486 1483 1480 1478 1476 1472 1469 1466 1464 1463 1462 1461 1460 1459 1458 1457 1457 1456 1456 1454 1453 1451 1449
1513 1506 1503 1501 1494 1490 1491 1493 1500 1504 1506 1501 1501 1499 1498 1497 1495 1493 1492 1490 1487 1484 1482 1479 1476 1472 1469 1465 1462 1460 1459 1458 1457 1457 1456 1455 1454 1454 1455 1455 1455 1454 1453 1451
1522 1510 1507 1509 1500 1495 1500 1501 1501 1507 1508 1503 1501 1500 1499 1497 1494 1492 1491 1488 1486 1483 1480 1476 1472 1468 1464 1462 1459 1456 1454 1453 1452 1453 1452 1451 1450 1451 1452 1453 1454 1454 1454 1453
1521 1519 1523 1513 1497 1497 1504 1513 1510 1511 1512 1510 1507 1503 1499 1498 1498 1495 1492 1488 1484 1481 1477 1473 1469 1465 1460 1456 1454 1452 1450 1448 1447 1447 1447 1447 1446 1447 1448 1450 1452 1454 1454 1454
1523 1524 1518 1504 1498 1497 1503 1517 1519 1517 1515 1511 1508 1502 1497 1497 1497 1494 1489 1486 1482 1478 1474 1469 1464 1460 1456 1451 1449 1447 1445 1444 1442 1442 1442 1442 1442 1443 1444 1447 1450 1452 1454 1454
1519 1524 1527 1513 1505 1500 1502 1519 1522 1519 1516 1512 1507 1508 1501 1495 1491 1488 1483 1479 1476 1473 1468 1463 1459 1455 1452 1448 1444 1441 1439 1437 1437 1438 1437 1437 1438 1439 1441 1444 1448 1450 1452 1454
1519 1520 1511 1519 1509 1503 1510 1520 1522 1518 1515 1510 1506 1504 1497 1491 1486 1482 1477 1473 1469 1466 1462 1457 1453 1449 1446 1444 1440 1436 1433 1429 1429 1431 1432 1432 1433 1435 1438 1442 1445 1448 1450 1453
1517 1520 1522 1522 1515 1520 1527 1523 1519 1514 1510 1506 1501 1496 1491 1486 1480 1475 1470 1466 1463 1460 1456 1452 1448 1444 1440 1438 1435 1432 1427 1423 1422 1423 1425 1426 1428 1430 1433 1438 1441 1445 1448 1450
1522 1528 1529 1526 1525 1525 1523 1520 1516 1512 1507 1502 1496 1489 1484 1478 1473 1468 1464 1460 1457 1453 1449 1445 1442 1439 1435 1432 1429 1425 1421 1417 1415 1414 1416 1419 1421 1423 1427 1432 1436 1440 1444 1447
1527 1529 1528 1526 1525 1523 1521 1517 1512 1507 1501 1496 1489 1482 1476 1470 1465 1460 1456 1452 1448 1444 1440 1436 1434 1431 1428 1425 1422 1418 1414 1411 1408 1407 1407 1410 1413 1416 1420 1425 1430 1434 1438 1442
1533 1531 1529 1526 1524 1520 1515 1509 1503 1497 1493 1487 1480 1473 1467 1461 1456 1451 1446 1443 1439 1435 1431 1427 1424 1422 1419 1417 1414 1410 1407 1404 1402 1401 1399 1400 1404 1408 1412 1417 1422 1427 1433 1437
1538 1534 1531 1525 1520 1515 1508 1501 1495 1489 1483 1477 1472 1465 1459 1453 1447 1442 1436 1432 1429 1425 1421 1417 1414 1412 1410 1408 1405 1402 1399 1397 1395 1392 1391 1391 1394 1400 1405 1411 1416 1422 1428 1433
1534 1530 1526 1519 1513 1508 1501 1495 1489 1483 1476 1470 1463 1458 1451 1444 1438 1432 1427 1423 1418 1414 1410 1406 1403 1401 1400 1398 1396 1394 1391 1389 1387 1385 1382 1382 1385 1390 1396 1403 1409 1416 1422 1428
1530 1525 1519 1513 1508 1502 1496 1489 1483 1476 1470 1463 1455 1447 1440 1433 1426 1421 1416 1411 1407 1403 1399 1396 1393 1390 1390 1388 1386 1385 1383 1381 1379 1376 1374 1373 1376 1382 1388 1394 1400 1406 1414 1421
1526 1521 1515 1508 1502 1495 1489 1482 1474 1467 1459 1452 1445 1437 1429 1421 1413 1406 1401 1396 1392 1388 1385 1384 1381 1379 1380 1379 1377 1376 1374 1373 1371 1368 1366 1366 1369 1374 1380 1387 1393 1399 1407 1414
1521 1516 1510 1504 1497 1490 1482 1475 1466 1458 1450 1441 1433 1425 1418 1409 1400 1392 1385 1380 1376 1371 1369 1368 1367 1367 1368 1368 1367 1367 1366 1365 1363 1361 1360 1360 1362 1368 1374 1380 1386 1393 1400 1407
1516 1509 1503 1497 1490 1482 1475 1468 1459 1450 1441 1432 1423 1414 1404 1395 1385 1377 1370 1365 1360 1356 1354 1353 1352 1354 1356 1358 1358 1357 1357 1356 1355 1353 1352 1353 1357 1362 1368 1375 1381 1389 1396 1402
1514 1508 1501 1493 1485 1476 1466 1459 1451 1442 1433 1423 1412 1402 1391 1382 1372 1363 1356 1350 1346 1342 1340 1339 1340 1341 1344 1347 1348 1348 1348 1347 1346 1345 1345 1347 1352 1358 1364 1371 1378 1385 1392 1399
1508 1501 1494 1487 1479 1470 1461 1452 1444 1435 1424 1413 1402 1391 1380 1370 1360 1350 1343 1337 1333 1330 1329 1329 1330 1332 1335 1338 1339 1339 1339 1339 1339 1338 1339 1342 1347 1354 1361 1368 1375 1382 1389 1395
1501 1495 1488 1481 1472 1464 1455 1447 1437 1427 1415 1404 1392 1381 1369 1359 1349 1340 1332 1326 1323 1321 1321 1321 1323 1325 1327 1329 1331 1331 1332 1332 1331 1331 1333 1336 1343 1350 1358 1365 1373 1379 1386 1391
1496 1489 1483 1475 1467 1459 1451 1441 1430 1419 1407 1396 1385 1374 1363 1352 1343 1334 1327 1321 1319 1317 1317 1317 1319 1320 1321 1323 1324 1324 1325 1324 1324 1324 1327 1333 1341 1348 1356 1363 1370 1376 1383 1388
1492 1485 1478 1470 1462 1454 1445 1435 1425 1413 1401 1389 1378 1368 1357 1348 1339 1332 1327 1322 1319 1317 1316 1315 1316 1316 1317 1318 1318 1319 1319 1318 1318 1320 1325 1332 1340 1347 1354 1361 1367 1374 1380 1385
1489 1482 1475 1467 1459 1450 1440 1430 1420 1409 1397 1386 1374 1364 1355 1347 1339 1333 1327 1324 1320 1318 1316 1315 1314 1314 1314 1313 1313 1313 1313 1313 1315 1320 1326 1333 1340 1347 1353 1360 1366 1372 1377 1382
1485 1478 1471 1464 1456 1446 1436 1425 1415 1406 1396 1385 1374 1363 1354 1346 1339 1334 1330 1326 1323 1320 1317 1315 1313 1312 1310 1309 1308 1308 1309 1311 1315 1322 1328 1334 1341 1347 1353 1359 1364 1370 1375 1379
1481 1474 1467 1460 1452 1443 1434 1422 1412 1403 1394 1384 1373 1363 1355 1348 1342 1336 1331 1327 1324 1321 1318 1315 1312 1310 1308 1306 1305 1306 1309 1314 1319 1325 1330 1336 1342 1348 1353 1358 1363 1368 1373 1377
1478 1472 1465 1458 1450 1442 1431 1421 1412 1403 1394 1383 1373 1364 1356 1349 1342 1337 1332 1328 1324 1321 1318 1315 1312 1310 1308 1306 1306 1309 1314 1319 1324 1329 1333 1338 1343 1348 1352 1357 1362 1367 1372 1376
1475 1468 1461 1453 1445 1437 1429 1420 1412 1403 1394 1384 1374 1364 1357 1349 1342 1336 1331 1327 1323 1319 1316 1314 1312 1311 1310 1311 1312 1316 1320 1325 1329 1332 1336 1339 1343 1348 1352 1357 1362 1367 1371 1375